RH
17 16 16 16 16 16 15 15 16 17 17 18 19 19 21 24 25 23 21 19 18 18 18 18 18 17 16 16 16 16 16 14 15 15 17 18 20 20 22 22 21 21 20 21 21 21 21
18 17 16 16 17 16 15 15 15 15 16 16 17 20 25 26 25 24 23 21 20 18 18 19 19 19 19 20 20 20 19 17 17 18 19 20 21 21 22 24 24 23 23 22 20 21 21
16 14 14 15 15 14 14 14 15 15 16 18 19 22 26 26 24 21 18 19 18 17 16 18 19 20 19 18 20 20 19 19 19 20 21 22 22 22 25 26 26 25 25 24 21 22 23
13 13 13 14 14 14 14 15 16 18 19 21 23 26 28 25 23 19 16 14 15 16 17 16 17 17 17 19 19 19 20 21 22 22 23 25 25 24 25 26 26 28 29 27 20 23 24
14 13 14 14 15 16 16 18 21 22 23 24 25 27 27 25 20 18 14 12 10 12 15 17 16 17 17 18 19 18 18 19 21 23 26 27 27 29 31 32 28 30 31 28 22 23 26
15 15 15 16 17 18 20 22 25 28 29 27 26 25 23 18 15 13 11 12 14 13 15 15 16 18 18 18 18 21 21 22 23 24 25 29 31 34 36 35 28 26 31 25 25 23 28
17 16 18 19 22 26 28 29 29 28 23 19 18 16 15 15 15 15 13 12 12 14 14 13 14 14 15 17 18 20 22 23 23 25 27 33 34 34 30 32 31 30 31 29 25 24 29
26 27 27 28 30 30 29 26 22 18 16 15 16 17 16 15 13 14 13 12 10 11 13 11 14 16 18 20 22 22 22 23 27 30 32 34 34 28 28 31 36 34 33 30 28 27 30
30 30 27 25 26 25 23 19 16 15 16 16 14 12 11 10 10 12 14 14 14 15 18 16 21 23 23 23 24 23 24 26 29 32 32 35 27 28 29 30 32 33 34 31 30 30 32
31 26 24 24 23 20 17 16 17 16 12 10 9 7 7 7 10 13 16 18 19 23 27 20 26 24 21 22 23 24 26 28 29 31 32 33 29 31 32 33 34 36 29 30 32 36 36
26 25 23 20 19 18 18 15 12 9 9 9 9 10 11 12 13 17 20 22 23 27 28 23 23 22 22 21 22 26 26 27 29 29 30 29 28 31 34 31 33 32 31 34 37 42 46
23 21 20 20 20 19 14 12 10 10 10 12 14 15 15 15 17 18 19 19 21 29 21 22 23 24 22 22 22 24 25 26 26 28 29 28 28 29 30 30 32 34 38 42 46 48 60
20 20 20 22 20 14 12 12 13 13 15 16 17 17 17 18 16 14 14 17 25 27 16 22 23 20 20 20 21 24 26 29 28 30 28 27 26 27 30 35 37 39 44 56 56 67 56
20 21 22 18 12 9 13 15 17 19 19 19 18 20 20 18 13 11 12 16 17 18 21 22 20 18 17 17 19 26 29 31 29 32 36 41 31 29 31 36 40 45 47 61 53 66 52
21 18 14 10 13 18 20 19 19 19 19 19 19 20 18 16 12 10 15 24 19 23 24 24 18 16 16 17 18 19 24 26 25 31 42 47 35 28 33 36 41 43 53 50 58 59 65
16 15 19 24 24 23 21 21 21 21 21 20 19 20 16 14 13 14 18 23 24 25 26 26 24 18 20 20 20 19 18 17 21 26 30 35 42 30 31 35 36 45 48 58 63 63 62
23 25 28 27 24 21 20 21 21 21 20 18 17 18 17 14 16 18 21 25 27 28 27 28 28 28 26 27 24 25 22 20 26 27 29 32 37 28 33 36 37 45 49 52 56 62 66
31 31 29 24 22 21 20 21 21 20 19 18 16 21 20 16 19 28 29 31 28 29 28 26 28 31 35 38 39 35 31 31 34 35 33 35 44 46 36 34 38 45 45 50 63 57 65
32 31 28 25 22 22 22 21 20 19 19 18 21 22 23 17 27 31 28 27 26 29 34 33 34 37 39 42 45 39 39 43 44 46 53 52 54 58 43 38 40 40 40 44 50 61 64
35 31 26 24 23 22 22 20 18 17 17 18 21 24 18 22 24 24 23 22 23 26 30 33 40 43 43 44 46 49 45 44 43 46 52 62 57 57 52 46 54 55 52 56 65 77 70
35 29 27 26 25 23 21 19 17 16 17 18 18 25 24 25 22 22 23 27 31 30 30 35 45 44 44 51 51 47 45 41 39 40 48 66 68 64 59 57 58 57 56 52 64 64 71
34 31 30 29 27 24 22 21 20 17 15 15 21 22 22 27 26 24 26 32 33 34 33 35 38 39 42 47 49 46 47 47 44 35 33 39 60 65 65 61 57 52 45 48 51 53 47
36 35 36 33 29 25 23 21 21 18 17 19 24 26 24 28 27 27 36 35 35 37 36 42 41 40 41 44 45 46 46 44 43 36 31 36 36 40 40 48 50 44 50 47 56 53 60
38 42 37 28 25 24 23 22 22 21 22 24 25 24 23 30 27 30 31 33 35 36 39 34 34 42 44 48 50 46 43 34 30 30 34 39 43 49 48 46 60 48 52 64 72 70 71
41 34 29 25 23 21 21 21 23 25 28 27 26 26 26 30 31 31 31 36 33 31 32 33 38 43 46 52 56 58 48 45 42 68 78 78 63 57 59 54 41 59 64 65 76 78 71
33 28 26 25 27 24 21 25 26 24 25 29 30 30 27 29 35 36 41 43 45 46 39 37 36 43 48 51 66 83 77 78 69 74 68 84 97 94 82 75 65 69 60 65 84 89 84
29 28 29 31 30 26 22 28 32 30 27 28 30 27 28 35 37 38 42 44 48 53 53 46 47 46 62 71 81 92 80 84 85 84 77 79 87 97 96 96 97 90 75 70 95 97 92
29 28 28 27 26 25 27 28 28 26 24 25 26 32 40 38 33 38 43 44 51 56 61 62 63 64 64 72 92 93 89 86 84 82 74 74 85 93 92 96 97 88 81 89 97 97 88
28 27 25 23 26 27 28 34 27 22 24 32 36 37 37 36 33 37 40 49 48 54 64 69 73 79 84 84 88 93 89 89 87 86 75 75 75 77 78 83 89 86 90 91 92 89 85